| time (UTC) | temp F | wind direction | speed MPH | gust MPH | rain 1hr in | rain 24hr in | rain mn in | humidity % | barometer mb |
| 20260503020106 | 67 | 257 | 2.0 | 6.0 | 0.00 | 0.00 | 0.00 | 41 | 1015.1 |
| 20260503014522 | 70 | 249 | 2.0 | 6.0 | 0.00 | 0.00 | 0.00 | 38 | 1015.1 |
| 20260503013054 | 71 | 248 | 0.0 | 0.0 | 0.00 | 0.00 | 0.00 | 37 | 1015.1 |
| 20260503011627 | 69 | 246 | 0.0 | 2.0 | 0.00 | 0.00 | 0.00 | 39 | 1015.1 |
| 20260503010012 | 70 | 248 | 0.0 | 3.0 | 0.00 | 0.00 | 0.00 | 40 | 1015.2 |
| 20260503004527 | 71 | 247 | 0.0 | 0.0 | 0.00 | 0.00 | 0.00 | 48 | 1015.4 |
| 20260503003029 | 74 | 248 | 0.0 | 4.0 | 0.00 | 0.00 | 0.00 | 36 | 1015.6 |
| 20260503001548 | 74 | 246 | 1.0 | 5.0 | 0.00 | 0.00 | 0.00 | 32 | 1015.7 |
| 20260503000123 | 75 | 231 | 0.0 | 2.0 | 0.00 | 0.00 | 0.00 | 33 | 1015.7 |
| 20260502234610 | 73 | 231 | 0.0 | 2.0 | 0.00 | 0.00 | 0.00 | 35 | 1015.8 |
| 20260502233115 | 71 | 231 | 0.0 | 0.0 | 0.00 | 0.00 | 0.00 | 44 | 1016.0 |
| 20260502231527 | 71 | 231 | 0.0 | 2.0 | 0.00 | 0.00 | 0.00 | 40 | 1016.1 |
| 20260502230020 | 76 | 231 | 0.0 | 0.0 | 0.00 | 0.00 | 0.00 | 31 | 1016.4 |
| 20260502224536 | 76 | 231 | 0.0 | 0.0 | 0.00 | 0.00 | 0.00 | 32 | 1016.6 |
| 20260502044502 | 53 | 230 | 2.0 | 4.0 | 0.00 | 0.00 | 0.00 | 65 | 1018.5 |
| 20260502043045 | 54 | 230 | 0.0 | 2.0 | 0.00 | 0.00 | 0.00 | 61 | 1018.4 |
| 20260502041608 | 55 | 230 | 0.0 | 0.0 | 0.00 | 0.00 | 0.00 | 66 | 1018.3 |
| 20260502040119 | 55 | 230 | 0.0 | 0.0 | 0.00 | 0.00 | 0.00 | 65 | 1018.1 |
| 20260502034558 | 55 | 231 | 0.0 | 4.0 | 0.00 | 0.00 | 0.00 | 60 | 1017.9 |
| 20260502033031 | 54 | 230 | 2.0 | 5.0 | 0.00 | 0.00 | 0.00 | 63 | 1017.7 |
| 20260502031529 | 54 | 231 | 2.0 | 5.0 | 0.00 | 0.00 | 0.00 | 63 | 1017.6 |
| 20260502030040 | 54 | 230 | 2.0 | 6.0 | 0.00 | 0.00 | 0.00 | 66 | 1017.4 |
| 20260502023141 | 58 | 230 | 3.0 | 5.0 | 0.00 | 0.00 | 0.00 | 60 | 1017.2 |
| 20260502021538 | 61 | 231 | 3.0 | 4.0 | 0.00 | 0.00 | 0.00 | 57 | 1017.2 |